Terminal Aerodrome Forecast
Issued by NWS Wichita, KS

Home | Current Version | Previous Version | Text Only | Print | Product List | Glossary Off
Versions: 1 2 3 4 5 6 7 8 9 10 11 12 13 14 15 16 17 18 19 20 21 22 23 24 25 26 27 28 29

000
FTUS43 KICT 231730
TAFICT
TAF
KICT 231730Z 2318/2418 15014KT 2SM -TSRA BKN003 OVC015CB
     FM232200 15012KT P6SM -RA OVC004
     FM240300 15011KT 4SM BR VCSH SCT004 OVC009
     FM240600 15008KT 1SM -DZ BR OVC001
     FM241500 18008KT 4SM BR OVC015=

USA.gov is the U.S. government's official web portal to all federal, state and local government web resources and services.